CES124 RCTP-RJFK

Flight info

Callsign CES124
Flight time 1h 43m
Altitude 41000
Route MOLKA1A MOLKA M750 MOMPA Y451 HKC
Aircraft A333/H-SDE3GHIJ2J3J5M1RVWXY/LB2D1

Departure

Time 2026-04-21 12:58
Airport Taiwan Taoyuan International Airport (RCTP)

Arrival

Time 2026-04-21 14:42
Airport Kagoshima Airport (RJFK)
Time Latitude Longitude Altitude Speed Heading
2026-04-21 12:12 25.07785 121.23669 105 ft 0 kts 319°
2026-04-21 12:41 25.07778 121.23675 105 ft 3 kts 319°
2026-04-21 12:41 25.07764 121.23689 103 ft 3 kts 319°
2026-04-21 12:41 25.07750 121.23703 103 ft 3 kts 310°
2026-04-21 12:42 25.07738 121.23719 96 ft 3 kts 310°
2026-04-21 12:42 25.07725 121.23735 105 ft 3 kts 289°
2026-04-21 12:42 25.07722 121.23755 104 ft 3 kts 274°
2026-04-21 12:42 25.07721 121.23776 104 ft 3 kts 246°
2026-04-21 12:43 25.07726 121.23787 104 ft 0 kts 219°
2026-04-21 12:46 25.07714 121.23776 104 ft 5 kts 221°
2026-04-21 12:46 25.07685 121.23743 107 ft 7 kts 229°
2026-04-21 12:46 25.07650 121.23696 106 ft 9 kts 230°
2026-04-21 12:46 25.07604 121.23637 106 ft 11 kts 229°
2026-04-21 12:47 25.07548 121.23565 107 ft 13 kts 229°
2026-04-21 12:47 25.07485 121.23485 105 ft 10 kts 229°
2026-04-21 12:47 25.07433 121.23420 104 ft 12 kts 227°
2026-04-21 12:47 25.07374 121.23342 107 ft 14 kts 229°
2026-04-21 12:48 25.07305 121.23257 106 ft 16 kts 230°
2026-04-21 12:48 25.07237 121.23186 106 ft 9 kts 202°
2026-04-21 12:48 25.07180 121.23198 105 ft 9 kts 156°
2026-04-21 12:48 25.07124 121.23194 105 ft 8 kts 201°
2026-04-21 12:49 25.07088 121.23154 107 ft 8 kts 225°
2026-04-21 12:49 25.07045 121.23101 105 ft 10 kts 229°
2026-04-21 12:49 25.06995 121.23036 104 ft 12 kts 229°
2026-04-21 12:49 25.06934 121.22962 106 ft 14 kts 227°
2026-04-21 12:50 25.06865 121.22877 104 ft 16 kts 225°
2026-04-21 12:50 25.06800 121.22792 106 ft 15 kts 232°
2026-04-21 12:50 25.06730 121.22703 106 ft 16 kts 229°
2026-04-21 12:50 25.06651 121.22606 107 ft 18 kts 226°
2026-04-21 12:51 25.06568 121.22502 104 ft 19 kts 227°
2026-04-21 12:51 25.06481 121.22389 107 ft 20 kts 230°
2026-04-21 12:51 25.06403 121.22292 106 ft 11 kts 229°
2026-04-21 12:51 25.06337 121.22256 106 ft 9 kts 187°
2026-04-21 12:52 25.06327 121.22255 105 ft 0 kts 186°
2026-04-21 12:54 25.06321 121.22254 106 ft 5 kts 185°
2026-04-21 12:54 25.06270 121.22248 105 ft 9 kts 187°
2026-04-21 12:54 25.06206 121.22254 105 ft 9 kts 154°
2026-04-21 12:55 25.06172 121.22283 103 ft 0 kts 139°
2026-04-21 12:55 25.06155 121.22298 104 ft 8 kts 141°
2026-04-21 12:56 25.06119 121.22359 103 ft 11 kts 103°
2026-04-21 12:56 25.06145 121.22435 103 ft 12 kts 48°
2026-04-21 12:56 25.06162 121.22456 102 ft 0 kts 47°
2026-04-21 12:57 25.06164 121.22459 101 ft 7 kts 47°
2026-04-21 12:57 25.06379 121.22731 100 ft 91 kts 49°
2026-04-21 12:58 25.06981 121.23495 101 ft 172 kts 50°
2026-04-21 12:58 25.07915 121.24650 406 ft 226 kts 50°
2026-04-21 12:58 25.08954 121.26071 997 ft 240 kts 52°
2026-04-21 12:58 25.10032 121.27490 1800 ft 246 kts 50°
2026-04-21 12:59 25.11202 121.28967 2348 ft 264 kts 47°
2026-04-21 12:59 25.12484 121.30460 3072 ft 271 kts 45°
2026-04-21 12:59 25.13786 121.31947 3868 ft 275 kts 45°
2026-04-21 12:59 25.15128 121.33478 4724 ft 280 kts 45°
2026-04-21 13:00 25.16494 121.35041 5561 ft 286 kts 45°
2026-04-21 13:00 25.17887 121.36637 6400 ft 292 kts 45°
2026-04-21 13:00 25.19307 121.38268 7213 ft 297 kts 45°
2026-04-21 13:00 25.20752 121.39932 8088 ft 303 kts 45°
2026-04-21 13:01 25.22223 121.41625 8939 ft 309 kts 45°
2026-04-21 13:01 25.23722 121.43352 9827 ft 314 kts 44°
2026-04-21 13:01 25.25233 121.45094 10448 ft 326 kts 44°
2026-04-21 13:01 25.26860 121.46966 10768 ft 349 kts 44°
2026-04-21 13:02 25.28507 121.49022 11239 ft 365 kts 52°
2026-04-21 13:02 25.29787 121.51469 11945 ft 372 kts 67°
2026-04-21 13:02 25.30459 121.57089 13650 ft 374 kts 94°
2026-04-21 13:03 25.30423 121.59975 14328 ft 379 kts 85°
2026-04-21 13:03 25.30794 121.62880 14939 ft 385 kts 79°
2026-04-21 13:03 25.31324 121.65765 15549 ft 391 kts 77°
2026-04-21 13:03 25.31900 121.68717 16197 ft 396 kts 77°
2026-04-21 13:04 25.32487 121.71708 16836 ft 401 kts 77°
2026-04-21 13:04 25.33108 121.74838 15034 ft 455 kts 77°
2026-04-21 13:04 25.33799 121.78273 16364 ft 425 kts 77°
2026-04-21 13:04 25.34394 121.81175 18586 ft 350 kts 75°
2026-04-21 13:05 25.34892 121.83544 20523 ft 285 kts 75°
2026-04-21 13:05 25.35296 121.85458 22278 ft 228 kts 74°
2026-04-21 13:05 25.35641 121.87033 23262 ft 205 kts 71°
2026-04-21 13:05 25.36129 121.88661 22871 ft 248 kts 63°
2026-04-21 13:06 25.36988 121.90428 22692 ft 270 kts 49°
2026-04-21 13:06 25.38189 121.91850 23619 ft 233 kts 27°
2026-04-21 13:06 25.39543 121.92550 24228 ft 209 kts
2026-04-21 13:06 25.40995 121.93063 24238 ft 232 kts 11°
2026-04-21 13:07 25.42574 121.93676 24346 ft 244 kts 10°
2026-04-21 13:07 25.44149 121.94185 24931 ft 225 kts
2026-04-21 13:07 25.45641 121.94393 25393 ft 211 kts 348°
2026-04-21 13:07 25.47116 121.94163 25382 ft 224 kts 342°
2026-04-21 13:08 25.48762 121.94441 25099 ft 274 kts 23°
2026-04-21 13:08 25.50194 121.95986 25167 ft 300 kts 57°
2026-04-21 13:08 25.50898 121.98237 25172 ft 325 kts 85°
2026-04-21 13:08 25.50590 122.00762 25184 ft 340 kts 111°
2026-04-21 13:09 25.49814 122.03188 25312 ft 331 kts 111°
2026-04-21 13:09 25.49045 122.05641 25460 ft 344 kts 110°
2026-04-21 13:09 25.48252 122.08193 25626 ft 358 kts 110°
2026-04-21 13:09 25.47426 122.10845 25780 ft 371 kts 110°
2026-04-21 13:10 25.46569 122.13593 25946 ft 384 kts 110°
2026-04-21 13:10 25.45693 122.16393 26100 ft 397 kts 110°
2026-04-21 13:10 25.44773 122.19325 26269 ft 410 kts 110°
2026-04-21 13:10 25.43824 122.22348 26422 ft 422 kts 110°
2026-04-21 13:11 25.42850 122.25457 26593 ft 434 kts 109°
2026-04-21 13:11 25.42311 122.28778 26754 ft 447 kts 89°
2026-04-21 13:11 25.42775 122.32197 26925 ft 455 kts 69°
2026-04-21 13:11 25.44188 122.35334 27080 ft 459 kts 51°
2026-04-21 13:12 25.46092 122.38204 27304 ft 466 kts 52°
2026-04-21 13:12 25.47852 122.41247 27606 ft 473 kts 57°
2026-04-21 13:12 25.49394 122.44494 27904 ft 480 kts 62°
2026-04-21 13:12 25.50762 122.47828 28251 ft 484 kts 65°
2026-04-21 13:13 25.52056 122.51283 28624 ft 487 kts 66°
2026-04-21 13:13 25.53303 122.54788 29015 ft 491 kts 67°
2026-04-21 13:13 25.54526 122.58332 29311 ft 495 kts 67°
2026-04-21 13:13 25.55743 122.61917 29642 ft 499 kts 68°
2026-04-21 13:14 25.56953 122.65515 30157 ft 498 kts 68°
2026-04-21 13:14 25.58157 122.69117 30427 ft 498 kts 68°
2026-04-21 13:14 25.60302 122.76505 30480 ft 513 kts 73°
2026-04-21 13:15 25.62034 122.84225 30535 ft 522 kts 78°
2026-04-21 13:15 25.62622 122.88237 30392 ft 534 kts 82°
2026-04-21 13:15 25.62970 122.92365 30231 ft 539 kts 87°
2026-04-21 13:16 25.62955 122.96542 29908 ft 548 kts 94°
2026-04-21 13:16 25.62541 123.00751 29652 ft 549 kts 100°
2026-04-21 13:16 25.61757 123.04889 29474 ft 549 kts 105°
2026-04-21 13:16 25.60839 123.08986 29464 ft 548 kts 105°
2026-04-21 13:17 25.59048 123.17134 29604 ft 544 kts 104°
2026-04-21 13:17 25.58174 123.21201 29965 ft 542 kts 104°
2026-04-21 13:17 25.57316 123.25266 30298 ft 542 kts 104°
2026-04-21 13:18 25.56474 123.29333 30605 ft 542 kts 104°
2026-04-21 13:18 25.55647 123.33405 30922 ft 542 kts 103°
2026-04-21 13:18 25.54837 123.37481 31251 ft 542 kts 103°
2026-04-21 13:18 25.54043 123.41561 31577 ft 542 kts 103°
2026-04-21 13:19 25.53265 123.45645 31909 ft 542 kts 103°
2026-04-21 13:19 25.52504 123.49664 32241 ft 536 kts 103°
2026-04-21 13:19 25.51761 123.53643 32607 ft 521 kts 102°
2026-04-21 13:19 25.51045 123.57545 33035 ft 515 kts 102°
2026-04-21 13:20 25.50344 123.61421 33479 ft 513 kts 102°
2026-04-21 13:20 25.49654 123.65292 33932 ft 512 kts 102°
2026-04-21 13:20 25.48974 123.69155 34327 ft 511 kts 101°
2026-04-21 13:20 25.48305 123.73010 34694 ft 510 kts 101°
2026-04-21 13:21 25.47655 123.76810 35071 ft 508 kts 101°
2026-04-21 13:21 25.47008 123.80650 35453 ft 507 kts 101°
2026-04-21 13:21 25.46370 123.84484 35839 ft 506 kts 101°
2026-04-21 13:21 25.45744 123.88306 36211 ft 504 kts 101°
2026-04-21 13:22 25.45127 123.92121 36582 ft 503 kts 101°
2026-04-21 13:22 25.44523 123.95923 36944 ft 501 kts 100°
2026-04-21 13:22 25.43938 123.99698 37357 ft 490 kts 99°
2026-04-21 13:22 25.43469 124.03391 37878 ft 480 kts 96°
2026-04-21 13:23 25.43100 124.07047 38243 ft 479 kts 96°
2026-04-21 13:23 25.42753 124.10719 38522 ft 481 kts 95°
2026-04-21 13:23 25.42429 124.14362 38765 ft 484 kts 95°
2026-04-21 13:23 25.42122 124.18081 38969 ft 487 kts 94°
2026-04-21 13:24 25.41836 124.21824 39177 ft 490 kts 94°
2026-04-21 13:24 25.41572 124.25582 39346 ft 490 kts 94°
2026-04-21 13:24 25.41329 124.29342 39526 ft 490 kts 93°
2026-04-21 13:24 25.41109 124.33098 39703 ft 490 kts 93°
2026-04-21 13:25 25.40913 124.36857 39878 ft 489 kts 91°
2026-04-21 13:25 25.41004 124.40601 40156 ft 486 kts 85°
2026-04-21 13:25 25.41232 124.44282 40392 ft 487 kts 84°
2026-04-21 13:25 25.41518 124.48012 40628 ft 486 kts 79°
2026-04-21 13:26 25.42449 124.51575 40892 ft 480 kts 61°
2026-04-21 13:26 25.44190 124.54665 41163 ft 470 kts 46°
2026-04-21 13:26 25.46336 124.57370 41416 ft 466 kts 39°
2026-04-21 13:26 25.48774 124.59719 41346 ft 461 kts 29°
2026-04-21 13:27 25.51497 124.61503 41107 ft 450 kts 17°
2026-04-21 13:27 25.54416 124.62608 41047 ft 438 kts
2026-04-21 13:27 25.57398 124.63027 41040 ft 428 kts 352°
2026-04-21 13:27 25.60294 124.62802 41039 ft 419 kts 342°
2026-04-21 13:28 25.63071 124.61981 41041 ft 409 kts 331°
2026-04-21 13:28 25.65640 124.60685 41034 ft 404 kts 324°
2026-04-21 13:28 25.70603 124.57721 41036 ft 406 kts 324°
2026-04-21 13:29 25.75579 124.54731 41036 ft 407 kts 324°
2026-04-21 13:29 25.80552 124.51741 41057 ft 407 kts 324°
2026-04-21 13:30 25.85488 124.48770 41045 ft 406 kts 324°
2026-04-21 13:30 25.90451 124.45778 41043 ft 406 kts 324°
2026-04-21 13:31 25.95420 124.42790 41040 ft 407 kts 326°
2026-04-21 13:31 26.00827 124.40650 41041 ft 422 kts 342°
2026-04-21 13:32 26.06755 124.40619 41039 ft 442 kts
2026-04-21 13:32 26.09734 124.41588 41043 ft 452 kts 15°
2026-04-21 13:32 26.12539 124.43241 41038 ft 462 kts 28°
2026-04-21 13:33 26.17473 124.47957 41035 ft 470 kts 37°
2026-04-21 13:33 26.22242 124.52937 41042 ft 470 kts 37°
2026-04-21 13:34 26.26998 124.57856 41043 ft 469 kts 37°
2026-04-21 13:34 26.31797 124.62797 41045 ft 470 kts 37°
2026-04-21 13:35 26.36610 124.67751 41042 ft 472 kts 37°
2026-04-21 13:35 26.41430 124.72717 41042 ft 472 kts 37°
2026-04-21 13:36 26.46216 124.77653 41043 ft 472 kts 37°
2026-04-21 13:36 26.51035 124.82627 41043 ft 472 kts 37°
2026-04-21 13:37 26.55851 124.87605 41045 ft 472 kts 37°
2026-04-21 13:37 26.60664 124.92585 41042 ft 472 kts 37°
2026-04-21 13:38 26.65444 124.97537 41045 ft 472 kts 37°
2026-04-21 13:38 26.70256 125.02529 41048 ft 472 kts 37°
2026-04-21 13:39 26.75063 125.07521 41045 ft 472 kts 37°
2026-04-21 13:39 26.79872 125.12520 41045 ft 472 kts 37°
2026-04-21 13:40 26.84647 125.17491 41045 ft 472 kts 37°
2026-04-21 13:40 26.89450 125.22498 41050 ft 472 kts 37°
2026-04-21 13:41 26.94251 125.27508 41048 ft 471 kts 37°
2026-04-21 13:41 26.99046 125.32517 41048 ft 471 kts 37°
2026-04-21 13:42 27.03805 125.37495 41044 ft 471 kts 37°
2026-04-21 13:42 27.08595 125.42513 41058 ft 471 kts 37°
2026-04-21 13:43 27.13389 125.47540 41053 ft 472 kts 37°
2026-04-21 13:43 27.18182 125.52572 41052 ft 472 kts 37°
2026-04-21 13:44 27.22968 125.57604 41050 ft 471 kts 37°
2026-04-21 13:44 27.27719 125.62604 41048 ft 471 kts 37°
2026-04-21 13:45 27.32509 125.67652 41049 ft 472 kts 37°
2026-04-21 13:45 27.37296 125.72703 41052 ft 472 kts 37°
2026-04-21 13:46 27.42080 125.77758 41050 ft 472 kts 37°
2026-04-21 13:46 27.46829 125.82782 41056 ft 472 kts 37°
2026-04-21 13:47 27.51609 125.87844 41053 ft 472 kts 37°
2026-04-21 13:47 27.56390 125.92913 41054 ft 472 kts 37°
2026-04-21 13:48 27.61169 125.97988 41053 ft 472 kts 37°
2026-04-21 13:48 27.65945 126.03065 41057 ft 472 kts 37°
2026-04-21 13:49 27.70690 126.08116 41053 ft 472 kts 37°
2026-04-21 13:49 27.75463 126.13203 41056 ft 472 kts 37°
2026-04-21 13:50 27.80238 126.18299 41056 ft 472 kts 37°
2026-04-21 13:50 27.85010 126.23398 41056 ft 472 kts 37°
2026-04-21 13:51 27.89747 126.28465 41055 ft 472 kts 37°
2026-04-21 13:51 27.94517 126.33575 41056 ft 472 kts 37°
2026-04-21 13:52 27.99285 126.38689 41079 ft 472 kts 37°
2026-04-21 13:52 28.04051 126.43807 41059 ft 472 kts 37°
2026-04-21 13:53 28.08780 126.48893 41056 ft 472 kts 37°
2026-04-21 13:53 28.13542 126.54021 41059 ft 472 kts 37°
2026-04-21 13:54 28.18300 126.59151 41065 ft 472 kts 37°
2026-04-21 13:54 28.23054 126.64284 41056 ft 471 kts 37°
2026-04-21 13:55 28.27768 126.69379 41053 ft 471 kts 37°
2026-04-21 13:55 28.32512 126.74514 41056 ft 471 kts 37°
2026-04-21 13:56 28.37255 126.79655 41056 ft 472 kts 37°
2026-04-21 13:56 28.42002 126.84805 41056 ft 472 kts 37°
2026-04-21 13:57 28.46745 126.89958 41056 ft 472 kts 37°
2026-04-21 13:57 28.51454 126.95082 41056 ft 472 kts 37°
2026-04-21 13:58 28.56189 127.00240 41048 ft 471 kts 37°
2026-04-21 13:58 28.60915 127.05396 41056 ft 471 kts 37°
2026-04-21 13:59 28.65642 127.10558 41056 ft 471 kts 37°
2026-04-21 13:59 28.70334 127.15689 41070 ft 471 kts 37°
2026-04-21 14:00 28.75057 127.20861 41060 ft 471 kts 37°
2026-04-21 14:00 28.79786 127.26046 41056 ft 472 kts 38°
2026-04-21 14:01 28.84516 127.31239 41053 ft 472 kts 38°
2026-04-21 14:01 28.89215 127.36405 41063 ft 473 kts 38°
2026-04-21 14:02 28.93950 127.41618 41053 ft 473 kts 38°
2026-04-21 14:03 29.01056 127.49454 41053 ft 473 kts 38°
2026-04-21 14:03 29.05791 127.54684 41057 ft 474 kts 38°
2026-04-21 14:04 29.09389 127.58664 41055 ft 474 kts 38°
2026-04-21 14:04 29.11240 127.60712 41056 ft 474 kts 38°
2026-04-21 14:05 29.15975 127.65958 41054 ft 474 kts 38°
2026-04-21 14:05 29.20707 127.71208 41069 ft 474 kts 38°
2026-04-21 14:06 29.25437 127.76461 41056 ft 474 kts 38°
2026-04-21 14:06 29.30139 127.81691 41057 ft 474 kts 38°
2026-04-21 14:07 29.34868 127.86960 41056 ft 474 kts 38°
2026-04-21 14:07 29.39600 127.92237 41061 ft 474 kts 38°
2026-04-21 14:08 29.44324 127.97513 41054 ft 474 kts 38°
2026-04-21 14:08 29.49023 128.02768 41059 ft 475 kts 38°
2026-04-21 14:09 29.53755 128.08068 41053 ft 475 kts 38°
2026-04-21 14:09 29.58483 128.13371 41054 ft 474 kts 38°
2026-04-21 14:10 29.63200 128.18669 41054 ft 474 kts 38°
2026-04-21 14:10 29.67888 128.23941 41053 ft 475 kts 39°
2026-04-21 14:11 29.72617 128.29266 41057 ft 476 kts 39°
2026-04-21 14:11 29.77340 128.34593 41056 ft 475 kts 39°
2026-04-21 14:12 29.82061 128.39924 41056 ft 475 kts 39°
2026-04-21 14:12 29.86779 128.45261 41056 ft 475 kts 39°
2026-04-21 14:13 29.91457 128.50559 41057 ft 474 kts 39°
2026-04-21 14:13 29.96151 128.55883 41055 ft 473 kts 39°
2026-04-21 14:14 30.00842 128.61211 41055 ft 473 kts 39°
2026-04-21 14:14 30.05500 128.66508 41049 ft 473 kts 39°
2026-04-21 14:15 30.10195 128.71855 41056 ft 475 kts 39°
2026-04-21 14:15 30.14896 128.77216 41059 ft 475 kts 39°
2026-04-21 14:16 30.19598 128.82587 41074 ft 475 kts 39°
2026-04-21 14:16 30.24292 128.87955 41063 ft 475 kts 39°
2026-04-21 14:17 30.28954 128.93293 41050 ft 475 kts 39°
2026-04-21 14:17 30.33650 128.98679 41062 ft 476 kts 39°
2026-04-21 14:18 30.38348 129.04075 41061 ft 475 kts 39°
2026-04-21 14:18 30.43036 129.09467 41062 ft 475 kts 39°
2026-04-21 14:19 30.47692 129.14829 41066 ft 475 kts 40°
2026-04-21 14:19 30.52381 129.20237 41070 ft 476 kts 40°
2026-04-21 14:20 30.57076 129.25661 41060 ft 476 kts 40°
2026-04-21 14:20 30.61765 129.31087 41069 ft 476 kts 40°
2026-04-21 14:21 30.66391 129.36445 41764 ft 476 kts 43°
2026-04-21 14:21 30.68750 129.39179 40935 ft 481 kts 38°
2026-04-21 14:21 30.71127 129.41937 41050 ft 485 kts 38°
2026-04-21 14:22 30.75953 129.47541 41064 ft 492 kts 38°
2026-04-21 14:22 30.80791 129.53175 41063 ft 492 kts 39°
2026-04-21 14:23 30.85598 129.58778 41075 ft 494 kts 38°
2026-04-21 14:23 30.88013 129.61598 40828 ft 490 kts 38°
2026-04-21 14:23 30.90438 129.64426 40035 ft 497 kts 39°
2026-04-21 14:23 30.92906 129.67302 39162 ft 507 kts 39°
2026-04-21 14:24 30.95416 129.70232 38298 ft 514 kts 39°
2026-04-21 14:24 30.97944 129.73189 37534 ft 516 kts 39°
2026-04-21 14:24 31.00478 129.76157 36782 ft 515 kts 39°
2026-04-21 14:24 31.02952 129.79061 35747 ft 509 kts 39°
2026-04-21 14:25 31.05445 129.81987 34449 ft 508 kts 39°
2026-04-21 14:25 31.07930 129.84904 33009 ft 506 kts 39°
2026-04-21 14:25 31.10408 129.87813 31431 ft 505 kts 39°
2026-04-21 14:25 31.12886 129.90724 29811 ft 505 kts 39°
2026-04-21 14:26 31.15353 129.93625 28231 ft 500 kts 39°
2026-04-21 14:26 31.17766 129.96472 26971 ft 487 kts 39°
2026-04-21 14:26 31.19332 129.98319 26077 ft 481 kts 39°
2026-04-21 14:26 31.21655 130.01060 24830 ft 469 kts 40°
2026-04-21 14:27 31.24681 130.04633 23118 ft 456 kts 40°
2026-04-21 14:27 31.26149 130.06366 22122 ft 451 kts 40°
2026-04-21 14:27 31.29038 130.09778 20266 ft 441 kts 41°
2026-04-21 14:27 31.31181 130.12311 18964 ft 435 kts 41°
2026-04-21 14:28 31.33251 130.14766 18326 ft 412 kts 41°
2026-04-21 14:28 31.34558 130.16319 17937 ft 397 kts 41°
2026-04-21 14:28 31.36448 130.18565 17374 ft 378 kts 41°
2026-04-21 14:28 31.38260 130.20719 16854 ft 370 kts 41°
2026-04-21 14:29 31.40685 130.23588 16146 ft 370 kts 41°
2026-04-21 14:29 31.41882 130.25006 15799 ft 369 kts 41°
2026-04-21 14:29 31.43684 130.27143 15260 ft 368 kts 41°
2026-04-21 14:29 31.46058 130.29962 14568 ft 366 kts 41°
2026-04-21 14:30 31.47266 130.31397 14203 ft 365 kts 41°
2026-04-21 14:30 31.49617 130.34192 13476 ft 362 kts 41°
2026-04-21 14:30 31.51368 130.36277 12887 ft 357 kts 41°
2026-04-21 14:30 31.52516 130.37643 12502 ft 354 kts 41°
2026-04-21 14:31 31.54228 130.39684 11972 ft 348 kts 42°
2026-04-21 14:31 31.55906 130.41683 11473 ft 341 kts 42°
2026-04-21 14:31 31.57553 130.43649 10988 ft 336 kts 43°
2026-04-21 14:31 31.59173 130.45583 10621 ft 326 kts 43°
2026-04-21 14:32 31.60711 130.47425 10547 ft 307 kts 43°
2026-04-21 14:32 31.62164 130.49168 10449 ft 292 kts 43°
2026-04-21 14:32 31.63556 130.50836 10078 ft 291 kts 43°
2026-04-21 14:32 31.64972 130.52529 9632 ft 290 kts 43°
2026-04-21 14:33 31.66372 130.54203 9246 ft 284 kts 43°
2026-04-21 14:33 31.67732 130.55818 8877 ft 272 kts 41°
2026-04-21 14:33 31.69267 130.57104 8672 ft 275 kts 23°
2026-04-21 14:33 31.71125 130.57584 8605 ft 274 kts 358°
2026-04-21 14:34 31.73011 130.57230 8188 ft 277 kts 344°
2026-04-21 14:34 31.75454 130.56371 7341 ft 277 kts 342°
2026-04-21 14:34 31.76692 130.55916 6947 ft 273 kts 343°
2026-04-21 14:34 31.78456 130.55279 6545 ft 264 kts 343°
2026-04-21 14:35 31.80184 130.54665 6181 ft 254 kts 344°
2026-04-21 14:35 31.81857 130.54081 5851 ft 251 kts 344°
2026-04-21 14:35 31.83541 130.53491 5494 ft 253 kts 344°
2026-04-21 14:35 31.85228 130.52902 5161 ft 253 kts 344°
2026-04-21 14:36 31.86912 130.52314 4813 ft 252 kts 344°
2026-04-21 14:36 31.88612 130.51746 4498 ft 259 kts 348°
2026-04-21 14:36 31.90443 130.51599 4246 ft 270 kts
2026-04-21 14:36 31.92178 130.52391 3724 ft 269 kts 37°
2026-04-21 14:37 31.93385 130.53968 3483 ft 260 kts 56°
2026-04-21 14:37 31.94330 130.55803 3407 ft 264 kts 59°
2026-04-21 14:37 31.95168 130.57706 3426 ft 255 kts 68°
2026-04-21 14:37 31.95454 130.59704 3241 ft 245 kts 94°
2026-04-21 14:38 31.94940 130.61547 3147 ft 233 kts 122°
2026-04-21 14:38 31.93850 130.62850 3141 ft 216 kts 144°
2026-04-21 14:38 31.92631 130.63738 3110 ft 198 kts 149°
2026-04-21 14:38 31.91461 130.64510 2948 ft 194 kts 150°
2026-04-21 14:39 31.90302 130.65271 2781 ft 182 kts 150°
2026-04-21 14:39 31.89260 130.65959 2762 ft 163 kts 150°
2026-04-21 14:39 31.88301 130.66597 2748 ft 152 kts 149°
2026-04-21 14:39 31.87415 130.67188 2740 ft 143 kts 149°
2026-04-21 14:40 31.86558 130.67763 2675 ft 141 kts 148°
2026-04-21 14:40 31.85702 130.68337 2366 ft 142 kts 148°
2026-04-21 14:40 31.84837 130.68894 1993 ft 143 kts 148°
2026-04-21 14:40 31.83967 130.69484 1622 ft 144 kts 146°
2026-04-21 14:41 31.83120 130.70054 1307 ft 137 kts 148°
2026-04-21 14:41 31.82356 130.70577 1148 ft 120 kts 149°
2026-04-21 14:41 31.81632 130.71060 992 ft 117 kts 149°
2026-04-21 14:41 31.80945 130.71524 917 ft 104 kts 148°
2026-04-21 14:42 31.80579 130.71772 918 ft 10 kts 163°
2026-04-21 14:42 31.80512 130.71749 918 ft 11 kts 226°
2026-04-21 14:42 31.80474 130.71679 912 ft 11 kts 236°
2026-04-21 14:42 31.80413 130.71655 909 ft 8 kts 160°
2026-04-21 14:43 31.80359 130.71696 910 ft 9 kts 151°
2026-04-21 14:43 31.80300 130.71732 910 ft 11 kts 152°
2026-04-21 14:43 31.80252 130.71765 910 ft 9 kts 150°
2026-04-21 14:43 31.80232 130.71779 910 ft 4 kts 149°
2026-04-21 14:44 31.80219 130.71772 909 ft 2 kts 216°
2026-04-21 14:44 31.80209 130.71740 907 ft 8 kts 249°
2026-04-21 14:44 31.80189 130.71691 906 ft 1 kts 239°
2026-04-21 14:44 31.80177 130.71670 906 ft 2 kts 237°
2026-04-21 14:45 31.80176 130.71668 905 ft 0 kts 237°